Regional Weather Roundup
Issued by NWS Jackson, KY

Home | Current Version | Previous Version | Text Only | Print | Product List | Glossary Off
Versions: 1 2 3 4 5 6 7 8 9 10 11 12 13 14 15 16 17 18 19 20 21 22 23 24 25 26 27 28 29 30 31 32 33 34 35 36 37 38 39 40 41 42 43 44 45 46 47 48 49 50

000
ASUS43 KJKL 161410
RWRJKL

EAST KENTUCKY HOURLY WEATHER ROUNDUP
NATIONAL WEATHER SERVICE JACKSON KY
900 AM EST TUE JAN 16 2018

NOTE: "FAIR" INDICATES FEW OR NO CLOUDS BELOW 12,000 FEET WITH
NO SIGNIFICANT WEATHER AND/OR OBSTRUCTIONS TO VISIBILITY.

* THESE REPORTS ARE NOT UNDER NWS QUALITY CONTROL AND MAY NOT
  REPORT WEATHER SUCH AS PRECIPITATION AND FOG.

KYZ079-080-083-085-087-088-110-112-115-119-120-161500
...EASTERN KENTUCKY...

CITY           SKY/WX    TMP DP  RH WIND       PRES   REMARKS
JACKSON        FLURRIES  19  16  88 CALM      30.42R
LONDON         CLOUDY    17  12  80 NW6       30.46R WCI   9
SOMERSET*      LGT SNOW  16  12  86 N5        30.51S VSB 1   WCI   9
MONTICELLO*    LGT SNOW  16  13  88 NW9       30.52S FOG     WCI   4
WILLIAMSBURG*  CLOUDY    19  16  86 CALM      30.46R
MIDDLESBORO*   FLURRIES  30  27  86 CALM      30.42R
HARLAN APT*    CLOUDY    32  28  86 CALM      30.38R
PIKE CO APT*   LGT SNOW  27  27 100 NW5       30.38R WCI  22
BIG SANDY APT* LGT SNOW  25  24  95 N5        30.41R WCI  19
MOREHEAD APT*  LGT SNOW  16  10  79 NW6       30.48F WCI   7
ASHLAND*       LGT SNOW  20  16  84 N8        30.49R VSB 3/4 WCI  10
$$

KYZ035-036-041-042-044-050-067-078-099-161500
...CENTRAL KENTUCKY...

CITY           SKY/WX    TMP DP  RH WIND       PRES   REMARKS
MT STERLING*   LGT SNOW  14  10  85 NW6       30.50R WCI   5
FLEMING/MASON* LGT SNOW  13  10  90 W5        30.49S WCI   5
DANVILLE*      LGT SNOW  12   9  85 NW7       30.51S WCI   2
LEXINGTON      LGT SNOW  11   6  81 W9        30.49S VSB 3/4 WCI  -2
FRANKFORT      LGT SNOW  10   4  76 W6        30.52R WCI   0
LOUISVILLE     CLOUDY     8   0  69 W9        30.58R WCI  -5
LEBANON*       LGT SNOW  10   7  85 W8        30.53S VSB 3/4 WCI  -1
GLASGOW*       LGT SNOW  11   8  85 NW5       30.56S WCI   3
BOWLING GREEN  LGT SNOW  10   5  80 NW6       30.60S WCI   0
$$

KYZ091>093-OHZ055-061-077-WVZ005-015-034-035-042-161500
...SOUTHERN OHIO/WEST VIRGINIA...

CITY           SKY/WX    TMP DP  RH WIND       PRES   REMARKS
COVINGTON      CLOUDY     7   1  76 W10       30.49R WCI  -8
COLUMBUS       CLOUDY    11   4  73 W13       30.47R WCI  -4
DAYTON         MOCLDY     1  -3  83 W13       30.48R WCI -17
WILMINGTON     CLOUDY     6   1  80 W7        30.45S WCI  -6
HUNTINGTON     LGT SNOW  22  18  85 NW7       30.44R VSB 1   WCI  13
CHARLESTON     LGT SNOW  29  26  89 W3        30.40R FOG
BECKLEY        CLOUDY    32  21  64 SW5       30.29R WCI  27
BLUEFIELD      CLOUDY    32  20  61 SW6       30.30R WCI  26
LOGAN CO APT*  LGT SNOW  28  27  93 CALM      30.35S
$$

VAZ002-007-008-TNZ017-027-036-066-071-161500
...SOUTHWEST VIRGINIA/EAST TENNESSEE...

CITY           SKY/WX    TMP DP  RH WIND       PRES   REMARKS
WISE*          CLOUDY    30  28  93 CALM      30.32R
JONESVILLE*      N/A     28  27  93 CALM      30.40S
ABINGDON*        N/A     31  27  84 CALM      30.34R
BRISTOL          N/A     28  27  96 CALM      30.38R
MORRISTOWN*    MOSUNNY   34  28  80 CALM      30.39R
SEVIERVILLE*   SUNNY     27  25  93 CALM      30.42R
KNOXVILLE      PTSUNNY   33  28  81 SW6       30.41R WCI  28
LAFOLLETTE*    CLOUDY    30  27  86 CALM      30.45R
OAK RIDGE      CLOUDY    33  28  81 CALM      30.43R
CROSSVILLE     CLOUDY    21  18  88 NW6       30.39S WCI  13
NASHVILLE      LGT SNOW  15  10  80 N13       30.58R VSB 1   WCI   1
$$

...KEY TO REMARKS...
VSB - VISIBILITY IN MILES
WCI - WIND CHILL INDEX
HX  - HEAT INDEX

$$



USA.gov is the U.S. government's official web portal to all federal, state and local government web resources and services.